Regional Weather Roundup
Issued by NWS Midland/Odessa, TX

Skip options and go directly to product.
Home | Oldest Version | Next Version | Current Version | All | Text Only | Save Text | Print | Product List | Glossary On

Skip product version selection by date and time.   
326
ASUS44 KMAF 241110
RWRMAF
MIDLAND AREA WEATHER ROUNDUP
NATIONAL WEATHER SERVICE MIDLAND TX
600 AM CDT SUN JUL 24 2016

...IN SOUTHWEST TEXAS AND SOUTHEAST NEW MEXICO...

CITY           SKY/WX    TMP DP  RH WIND       PRES   REMARKS
ALPINE         CLEAR     72  55  53 SW7       30.11S
ANDREWS        FAIR      76  56  51 S5        30.00R
ARTESIA        CLEAR     73  54  49 NW5       30.00S
BIG SPRING     CLEAR     78  60  53 SE8       29.99S
CARLSBAD       CLEAR     75  54  47 S7        29.96S
DRYDEN           N/A     80  65  59 E13       29.92R
FORT STOCKTON  CLEAR     78  59  51 SE13G23   29.95S
GUAD PASS      CLEAR     71  54  54 NE21      30.12F
HOBBS          CLEAR     70  54  56 SE6       30.03S
MARFA          CLEAR     62  52  69 CALM      30.11R
MIDLAND AIRPK  CLEAR     79  57  47 S6        29.98F
MIDLAND INTL   CLEAR     80  60  50 S13       29.97S
ODESSA         CLEAR     81  59  47 S14       29.99R
PECOS          CLEAR     77  56  48 E12       29.92R
PRESIDIO       FAIR      84  57  39 NE7       29.92S
SEMINOLE       CLEAR     72  55  56 CALM      30.02R
SNYDER           N/A     75  60  59 S6        29.98S
WINK           CLEAR     78  56  46 SE12      29.93S
$$
...OTHER STATIONS IN TEXAS...

CITY           SKY/WX    TMP DP  RH WIND       PRES   REMARKS
ABILENE        CLEAR     78  65  63 S10       29.96R
AMARILLO       CLOUDY    71  57  61 SW8       30.05S
AUSTIN         PTCLDY    78  76  93 S5        29.94R
BROWNSVILLE    CLEAR     79  76  90 SE3       29.90R
CORPUS CHRISTI PTCLDY    79  75  87 CALM      29.90S
DALLAS FTW     PTCLDY    82  71  69 S6        29.92R
DEL RIO        CLEAR     82  71  69 E8        29.90R
EL PASO        CLEAR     82  44  26 S3        29.95S
HOUSTON INT    PTCLDY    80  76  87 CALM      29.95R
LUBBOCK        PTCLDY    73  59  61 S5        30.01F
SAN ANGELO     CLEAR     80  68  66 S7        29.94S
SAN ANTONIO    MOCLDY    78  74  87 S7        29.96R
WACO           PTCLDY    80  72  76 S9        29.93R
WICHITA FALLS  NOT AVBL
$$
...OTHER LOCATIONS IN NEW MEXICO...

CITY           SKY/WX    TMP DP  RH WIND       PRES   REMARKS
ALAMAGORDO     CLOUDY    75  37  25 CALM      30.01S
ALBUQUERQUE    CLOUDY    78  50  37 VRB5      30.11S
CANNON AFB     CLEAR     73  54  51 NW6       30.08S
CLOVIS         CLEAR     70  54  56 W9        30.08S
HOLLOMAN AFB   NOT AVBL
ROSWELL        CLEAR     73  48  41 NE5       30.01F
RUIDOSO          N/A     64  41  42 SW5       30.26S
SANTA FE       CLOUDY    67  57  70 N13       30.21S
TRUTH OR CONSE CLEAR     74  47  38 NW7       30.06S
TUCUMCARI      CLEAR     72  49  44 W5        30.05S
$$

USA.gov is the U.S. government's official web portal to all federal, state and local government web resources and services.